Time,TemperatureF,DewpointF,PressureIn,WindDirection,WindDirectionDegrees,WindSpeedMPH,WindSpeedGustMPH,Humidity,HourlyPrecipIn,Conditions,Clouds,dailyrainin,SoftwareType,DateUTC
2013-03-14 00:00:00,31.6,17.3,30.39,North,0,0.0,0.0,55,0.00,,,0.00,WUHU21623XXSP,2013-03-14 05:00:00,
2013-03-14 00:05:00,31.6,17.7,30.39,North,0,0.0,0.0,56,0.00,,,0.00,WUHU21623XXSP,2013-03-14 05:05:00,
2013-03-14 00:10:00,31.5,17.5,30.39,North,0,0.0,0.0,56,0.00,,,0.00,WUHU21623XXSP,2013-03-14 05:10:00,
2013-03-14 00:15:00,31.3,17.3,30.38,North,0,0.0,0.0,56,0.00,,,0.00,WUHU21623XXSP,2013-03-14 05:15:00,
2013-03-14 00:17:00,31.1,17.2,30.38,North,0,0.0,0.0,56,0.00,,,0.00,WUHU21623XXSP,2013-03-14 05:17:00,
2013-03-14 00:20:00,31.1,17.2,30.38,North,0,0.0,0.0,56,0.00,,,0.00,WUHU21623XXSP,2013-03-14 05:20:00,
2013-03-14 00:25:00,30.7,16.8,30.39,North,0,0.0,0.0,56,0.00,,,0.00,WUHU21623XXSP,2013-03-14 05:25:00,
2013-03-14 00:30:00,30.7,16.8,30.39,North,0,0.0,0.0,56,0.00,,,0.00,WUHU21623XXSP,2013-03-14 05:30:00,
2013-03-14 00:35:00,30.6,17.1,30.39,North,0,0.0,0.0,57,0.00,,,0.00,WUHU21623XXSP,2013-03-14 05:35:00,
2013-03-14 00:40:00,30.6,17.1,30.39,North,0,0.0,0.0,57,0.00,,,0.00,WUHU21623XXSP,2013-03-14 05:40:00,
2013-03-14 00:45:00,30.9,17.4,30.39,North,0,0.0,0.0,57,0.00,,,0.00,WUHU21623XXSP,2013-03-14 05:45:00,
2013-03-14 00:50:00,30.7,17.2,30.39,North,0,0.0,0.0,57,0.00,,,0.00,WUHU21623XXSP,2013-03-14 05:50:00,
2013-03-14 00:55:00,30.7,17.2,30.39,North,0,0.0,0.0,57,0.00,,,0.00,WUHU21623XXSP,2013-03-14 05:55:00,
2013-03-14 01:00:00,30.6,17.1,30.39,North,0,0.0,0.0,57,0.00,,,0.00,WUHU21623XXSP,2013-03-14 06:00:00,
2013-03-14 01:05:00,30.6,17.1,30.39,North,0,0.0,0.0,57,0.00,,,0.00,WUHU21623XXSP,2013-03-14 06:05:00,
2013-03-14 01:10:00,30.0,16.6,30.39,North,0,0.0,0.0,57,0.00,,,0.00,WUHU21623XXSP,2013-03-14 06:10:00,
2013-03-14 01:15:00,30.0,17.0,30.39,North,0,0.0,0.0,58,0.00,,,0.00,WUHU21623XXSP,2013-03-14 06:15:00,
2013-03-14 01:17:00,30.0,17.0,30.39,North,0,0.0,0.0,58,0.00,,,0.00,WUHU21623XXSP,2013-03-14 06:17:00,
2013-03-14 01:20:00,30.0,17.0,30.39,North,0,0.0,0.0,58,0.00,,,0.00,WUHU21623XXSP,2013-03-14 06:20:00,
2013-03-14 01:25:00,29.8,16.8,30.39,North,0,0.0,0.0,58,0.00,,,0.00,WUHU21623XXSP,2013-03-14 06:25:00,
2013-03-14 01:30:00,29.8,16.8,30.39,North,0,0.0,0.0,58,0.00,,,0.00,WUHU21623XXSP,2013-03-14 06:30:00,
2013-03-14 01:35:00,29.8,16.8,30.39,North,0,0.0,0.0,58,0.00,,,0.00,WUHU21623XXSP,2013-03-14 06:35:00,
2013-03-14 01:40:00,29.8,16.8,30.39,North,0,0.0,0.0,58,0.00,,,0.00,WUHU21623XXSP,2013-03-14 06:40:00,
2013-03-14 01:45:00,29.7,16.6,30.39,North,0,0.0,0.0,58,0.00,,,0.00,WUHU21623XXSP,2013-03-14 06:45:00,
2013-03-14 01:50:00,29.7,16.6,30.39,North,0,0.0,0.0,58,0.00,,,0.00,WUHU21623XXSP,2013-03-14 06:50:00,
2013-03-14 01:55:00,29.5,16.9,30.39,North,0,0.0,0.0,59,0.00,,,0.00,WUHU21623XXSP,2013-03-14 06:55:00,
2013-03-14 02:00:00,29.3,16.7,30.39,North,0,0.0,0.0,59,0.00,,,0.00,WUHU21623XXSP,2013-03-14 07:00:00,
2013-03-14 02:05:00,29.3,16.7,30.38,NNE,22,0.0,1.1,59,0.00,,,0.00,WUHU21623XXSP,2013-03-14 07:05:00,
2013-03-14 02:10:00,29.1,17.0,30.38,NNE,22,0.0,1.1,60,0.00,,,0.00,WUHU21623XXSP,2013-03-14 07:10:00,
2013-03-14 02:15:00,28.9,16.8,30.38,NNE,22,0.0,0.0,60,0.00,,,0.00,WUHU21623XXSP,2013-03-14 07:15:00,
2013-03-14 02:17:00,28.9,16.8,30.38,NNE,23,0.0,0.0,60,0.00,,,0.00,WUHU21623XXSP,2013-03-14 07:17:00,
2013-03-14 03:17:00,29.5,18.1,30.37,ENE,68,0.0,0.0,62,0.00,,,0.00,WUHU21623XXSP,2013-03-14 08:17:00,
2013-03-14 04:17:00,28.4,17.1,30.37,ENE,68,0.0,0.0,62,0.00,,,0.00,WUHU21623XXSP,2013-03-14 09:17:00,
2013-03-14 05:17:00,26.6,15.7,30.38,ENE,68,0.0,0.0,63,0.00,,,0.00,WUHU21623XXSP,2013-03-14 10:17:00,
2013-03-14 06:17:00,26.2,16.1,30.39,ENE,68,0.0,0.0,65,0.00,,,0.00,WUHU21623XXSP,2013-03-14 11:17:00,
2013-03-14 07:17:00,26.2,16.8,30.39,ENE,68,0.0,0.0,67,0.00,,,0.00,WUHU21623XXSP,2013-03-14 12:17:00,
2013-03-14 08:17:00,31.1,23.2,30.40,SE,135,1.3,1.3,72,0.00,,,0.00,WUHU21623XXSP,2013-03-14 13:17:00,
2013-03-14 09:17:00,40.3,27.6,30.40,SE,135,4.7,4.7,60,0.00,,,0.00,WUHU21623XXSP,2013-03-14 14:17:00,
2013-03-14 10:17:00,47.1,28.9,30.39,South,180,3.4,3.4,49,0.00,,,0.00,WUHU21623XXSP,2013-03-14 15:17:00,
2013-03-14 11:17:00,51.3,27.0,30.38,SSE,158,1.6,1.6,39,0.00,,,0.00,WUHU21623XXSP,2013-03-14 16:17:00,
2013-03-14 12:17:00,55.6,26.7,30.35,ESE,113,2.7,2.7,33,0.00,,,0.00,WUHU21623XXSP,2013-03-14 17:17:00,
2013-03-14 13:17:00,57.6,25.4,30.32,WNW,293,5.6,5.6,29,0.00,,,0.00,WUHU21623XXSP,2013-03-14 18:17:00,
2013-03-14 14:17:00,61.3,24.1,30.28,West,270,6.3,6.3,24,0.00,,,0.00,WUHU21623XXSP,2013-03-14 19:17:00,
2013-03-14 15:17:00,63.7,25.1,30.24,SW,225,1.1,1.1,23,0.00,,,0.00,WUHU21623XXSP,2013-03-14 20:17:00,
2013-03-14 16:17:00,62.6,27.1,30.22,SSW,203,5.8,5.8,26,0.00,,,0.00,WUHU21623XXSP,2013-03-14 21:17:00,
2013-03-14 17:17:00,62.2,29.3,30.20,West,270,6.5,6.5,29,0.00,,,0.00,WUHU21623XXSP,2013-03-14 22:17:00,
2013-03-14 18:17:00,59.4,30.8,30.19,WNW,293,5.4,5.4,34,0.00,,,0.00,WUHU21623XXSP,2013-03-14 23:17:00,
2013-03-14 19:17:00,56.3,30.1,30.18,South,180,1.1,1.1,37,0.00,,,0.00,WUHU21623XXSP,2013-03-15 00:17:00,
2013-03-14 20:17:00,53.6,30.9,30.16,SSW,203,0.0,0.0,42,0.00,,,0.00,WUHU21623XXSP,2013-03-15 01:17:00,
2013-03-14 21:17:00,52.7,31.3,30.17,SW,225,0.0,0.0,44,0.00,,,0.00,WUHU21623XXSP,2013-03-15 02:17:00,
2013-03-14 22:17:00,51.3,31.7,30.16,SE,135,0.0,0.0,47,0.00,,,0.00,WUHU21623XXSP,2013-03-15 03:17:00,
2013-03-14 23:17:00,49.1,30.7,30.16,SE,135,1.3,1.3,49,0.00,,,0.00,WUHU21623XXSP,2013-03-15 04:17:00,